Weather reports worldwide

Advertisment
Bingley, United Kingdom (3344): temperature & dewpoint: 16.01.2019 03:00:00 - 22.01.2019 03:00:00 (GMT)Bingley, United Kingdom (3344): temperature -20cm: 16.01.2019 03:00:00 - 22.01.2019 03:00:00 (GMT)Bingley, United Kingdom (3344): wind speed & gusts: 16.01.2019 03:00:00 - 22.01.2019 03:00:00 (GMT)Bingley, United Kingdom (3344): wind direction: 16.01.2019 03:00:00 - 22.01.2019 03:00:00 (GMT)Bingley, United Kingdom (3344): reduced air pressure: 16.01.2019 03:00:00 - 22.01.2019 03:00:00 (GMT)Bingley, United Kingdom (3344): visibility: 16.01.2019 03:00:00 - 22.01.2019 03:00:00 (GMT)Bingley, United Kingdom (3344): precipitation: 16.01.2019 03:00:00 - 22.01.2019 03:00:00 (GMT)
Date & Time tt [°C] td [°C] tt -20cm [°C] ff [km/h] ff [kn] fx [km/h] fx [kn] dd ppp [hPa] vv [km] rr [mm]
22.01.2019 03:00:00 1,5 1,2 - 15 8 - - W 1001,1 10 0,2
22.01.2019 02:00:00 1,6 1,3 - 16 9 - - WSW 1001,2 20 0,2
22.01.2019 01:00:00 1,4 0,9 - 18 10 - - WSW 1001,9 12 0,2
22.01.2019 00:00:00 2,1 1,5 - 16 9 48 26 WSW 1002,9 5 1,4
21.01.2019 23:00:00 3,1 2,5 - 22 12 - - S 1002,6 3,8 1,8
21.01.2019 22:00:00 3,0 2,2 - 18 10 - - S 1004,1 7 0,6
21.01.2019 21:00:00 3,5 1,6 - 21 11 - - S 1006,1 20 0,0
21.01.2019 20:00:00 3,1 1,8 - 22 12 - - SSW 1008,0 12 0,0
21.01.2019 19:00:00 3,3 1,9 - 15 8 - - S 1010,1 10 0,0
21.01.2019 18:00:00 3,3 1,8 - 16 9 - - S 1011,5 18 0,0
21.01.2019 17:00:00 3,2 2,0 - 13 7 - - SSW 1013,3 14 0,0
21.01.2019 16:00:00 2,8 1,2 - 18 10 - - SSW 1014,6 20 0,0
21.01.2019 15:00:00 3,0 1,0 - 15 8 - - SSW 1015,8 19 0,0
21.01.2019 14:00:00 3,3 1,4 - 22 12 - - SW 1017,0 27 0,0
21.01.2019 13:00:00 3,2 2,0 - 15 8 - - SSW 1018,3 11 0,0
21.01.2019 12:00:00 2,7 1,9 - 15 8 - - SW 1019,8 6 0,0
21.01.2019 11:00:00 2,6 2,3 - 11 6 - - SW 1021,2 6 0,0
21.01.2019 10:00:00 1,7 1,6 - 8 4 - - SW 1022,1 8 0,0
21.01.2019 09:00:00 1,3 1,3 4,0 5 3 - - SSW 1022,8 8 0,0
21.01.2019 08:00:00 0,3 0,3 - 8 4 - - SSW 1023,4 7 0,0
21.01.2019 07:00:00 0,2 0,2 - 5 3 - - SSW 1023,8 5 0,0
21.01.2019 06:00:00 -0,4 -0,7 - 5 3 - - S 1023,9 22 0,0
21.01.2019 05:00:00 0,3 -0,1 - 5 3 - - S 1024,3 11 0,0
21.01.2019 04:00:00 0,8 0,3 - 4 2 - - SW 1024,7 9 0,0
21.01.2019 03:00:00 2,4 2,0 - 5 3 - - NNE 1024,8 7 0,0
21.01.2019 02:00:00 2,5 2,3 - 4 2 - - NNW 1024,9 6 0,0
21.01.2019 01:00:00 2,7 2,5 - 5 3 - - NNW 1024,9 4,8 0,0
21.01.2019 00:00:00 2,8 2,8 - 8 4 - - NW 1024,7 2,8 0,0
20.01.2019 23:00:00 2,9 2,9 - 5 3 - - WNW 1024,5 2,7 0,2
20.01.2019 22:00:00 2,5 2,2 - 4 2 - - W 1024,0 4,1 0,0
20.01.2019 21:00:00 1,5 1,2 - 2 1 - - SW 1023,6 3,8 0,0
20.01.2019 20:00:00 1,7 1,4 - 9 5 - - WNW 1023,4 5 0,0
20.01.2019 19:00:00 1,7 0,7 - 8 4 - - WNW 1022,6 9 0,0
20.01.2019 18:00:00 2,1 1,3 - 9 5 - - WNW 1021,6 12 0,0
20.01.2019 17:00:00 1,7 1,1 - 8 4 - - WNW 1021,4 8 0,0
20.01.2019 16:00:00 2,7 1,6 - 8 4 - - WNW 1020,5 9 0,0
20.01.2019 15:00:00 3,8 2,4 - 13 7 - - NW 1019,9 14 0,0
20.01.2019 14:00:00 3,7 2,4 - 11 6 - - NW 1019,6 9 0,0
20.01.2019 13:00:00 3,3 3,3 - 5 3 - - WNW 1019,3 7 0,0
20.01.2019 12:00:00 2,7 2,7 - 8 4 - - NW 1018,9 3,7 0,0
20.01.2019 11:00:00 2,4 2,4 - 5 3 - - NW 1018,5 2,6 0,0
20.01.2019 10:00:00 2,0 2,0 - 4 2 - - WNW 1018,1 2,3 0,0
20.01.2019 09:00:00 1,5 1,5 3,9 0 0 - - N 1017,3 2,1 0,0
20.01.2019 08:00:00 1,4 1,4 - 2 1 - - WSW 1016,5 0,4 0,0
20.01.2019 07:00:00 1,3 1,3 - 2 1 - - WSW 1015,5 0,3 0,0
20.01.2019 06:00:00 1,2 1,2 - 2 1 - - S 1014,8 0,2 0,0
20.01.2019 05:00:00 1,3 1,3 - 4 2 - - SE 1014,3 0,1 0,0
20.01.2019 04:00:00 1,3 1,3 - 4 2 - - SE 1014,0 0,2 0,0
20.01.2019 03:00:00 1,2 1,2 - 4 2 - - ESE 1013,7 0,2 0,0
20.01.2019 02:00:00 1,2 1,2 - 5 3 - - ESE 1013,2 0,2 0,0
20.01.2019 01:00:00 1,1 1,1 - 5 3 - - SE 1012,9 0,3 0,0
20.01.2019 00:00:00 1,1 1,1 - 5 3 - - SE 1012,7 0,5 0,0
19.01.2019 23:00:00 1,1 1,1 - 5 3 - - ESE 1012,2 0,5 0,0
19.01.2019 22:00:00 1,0 1,0 - 4 2 - - ESE 1011,9 0,5 0,0
19.01.2019 21:00:00 0,9 0,9 - 9 5 - - SE 1011,4 0,8 0,2
19.01.2019 20:00:00 1,0 1,0 - 9 5 - - SE 1010,9 0,5 0,0
19.01.2019 19:00:00 1,0 1,0 - 8 4 - - ESE 1010,5 1,2 0,0
19.01.2019 18:00:00 0,9 0,9 - 9 5 - - E 1010,2 0,6 0,0
19.01.2019 17:00:00 0,9 0,9 - 9 5 - - SE 1009,7 0,4 0,0
19.01.2019 16:00:00 0,8 0,8 - 9 5 - - ESE 1009,3 0,7 0,0
19.01.2019 15:00:00 0,8 0,8 - 9 5 - - ESE 1009,0 1,1 0,0
19.01.2019 14:00:00 0,7 0,7 - 11 6 - - ESE 1008,9 0,3 0,0
19.01.2019 13:00:00 0,5 0,5 - 13 7 - - SE 1009,2 0,2 0,2
19.01.2019 12:00:00 0,6 0,6 - 15 8 - - SE 1009,5 0,5 0,6
19.01.2019 11:00:00 0,6 0,6 - 11 6 - - SE 1009,6 0,5 0,8
19.01.2019 10:00:00 0,4 0,4 - 11 6 - - SE 1009,2 0,9 0,4
19.01.2019 09:00:00 0,3 0,3 3,9 11 6 - - SE 1008,9 2,1 0,2
19.01.2019 08:00:00 0,3 0,3 - 15 8 - - SE 1008,6 0,7 0,4
19.01.2019 07:00:00 0,3 0,3 - 15 8 - - SE 1008,2 0,7 0,4
19.01.2019 06:00:00 0,5 0,5 - 15 8 - - SE 1008,0 1,1 0,4
19.01.2019 05:00:00 0,5 0,5 - 13 7 - - SE 1008,3 4,2 0,4
19.01.2019 04:00:00 0,6 0,6 - 9 5 - - ESE 1008,6 7 0,4
19.01.2019 03:00:00 0,5 0,4 - 13 7 - - SE 1008,8 6 0,2
19.01.2019 02:00:00 0,8 0,6 - 15 8 - - SE 1009,0 30 0,0
19.01.2019 01:00:00 0,5 0,5 - 11 6 - - SSE 1009,3 15 0,2
19.01.2019 00:00:00 0,1 0,1 - 9 5 - - SE 1009,8 5 0,0
18.01.2019 23:00:00 0,0 0,0 - 11 6 - - SE 1010,0 3,1 0,0
18.01.2019 22:00:00 0,0 0,0 - 9 5 - - SE 1010,3 2,3 0,0
18.01.2019 21:00:00 0,0 0,0 - 15 8 - - SE 1010,3 3,3 0,0
18.01.2019 20:00:00 0,2 0,2 - 16 9 - - SSE 1010,4 2,7 0,0
18.01.2019 19:00:00 0,3 0,3 - 15 8 - - SE 1010,6 2,6 0,0
18.01.2019 18:00:00 0,6 0,4 - 21 11 - - SSE 1010,8 2,2 0,2
18.01.2019 17:00:00 0,6 -0,1 - 13 7 - - SE 1011,2 6 0,0
18.01.2019 16:00:00 0,8 0,0 - 9 5 - - ESE 1011,6 12 0,0
18.01.2019 15:00:00 2,0 -0,8 - 16 9 - - SSE 1011,8 18 0,0
18.01.2019 14:00:00 2,0 -1,1 - 13 7 - - SE 1012,3 26 0,0
18.01.2019 13:00:00 1,3 -1,7 - 11 6 - - SE 1013,1 17 0,0
18.01.2019 12:00:00 1,1 -2,3 - 13 7 - - SE 1013,8 30 0,0
18.01.2019 11:00:00 0,4 -2,7 - 11 6 - - SE 1014,5 20 0,0
18.01.2019 10:00:00 -0,9 -3,5 - 8 4 - - SE 1015,2 24 0,0
18.01.2019 09:00:00 -1,7 -3,5 4,4 8 4 - - ESE 1015,5 19 0,0
18.01.2019 08:00:00 -1,1 -3,7 - 9 5 - - ESE 1015,6 23 0,0
18.01.2019 07:00:00 -0,7 -3,3 - 11 6 - - SSE 1015,7 28 0,0
18.01.2019 06:00:00 -0,9 -3,8 - 8 4 - - SSE 1016,1 21 0,0
18.01.2019 05:00:00 -0,8 -3,6 - 8 4 - - S 1016,5 30 0,0
18.01.2019 04:00:00 -1,3 -4,0 - 8 4 - - SSE 1017,0 26 0,0
18.01.2019 03:00:00 -1,8 -4,3 - 5 3 - - S 1017,7 29 0,0
18.01.2019 02:00:00 -1,7 -3,8 - 4 2 - - S 1017,9 27 0,0
18.01.2019 01:00:00 -0,9 -3,7 - 8 4 - - SW 1018,2 35 0,0
18.01.2019 00:00:00 -0,8 -3,7 - 4 2 - - WSW 1018,5 35 0,0
17.01.2019 23:00:00 -0,5 -3,9 - 5 3 - - W 1018,5 35 0,0
17.01.2019 22:00:00 -0,5 -4,0 - 4 2 - - W 1018,4 40 0,0
17.01.2019 21:00:00 -0,7 -4,2 - 8 4 - - WNW 1018,5 35 0,0
17.01.2019 20:00:00 -0,4 -4,1 - 5 3 - - W 1018,1 35 0,0
17.01.2019 19:00:00 0,0 -4,1 - 13 7 - - WNW 1017,7 35 0,0
17.01.2019 18:00:00 0,2 -4,1 - 9 5 - - W 1016,9 50 0,0
17.01.2019 17:00:00 -0,3 -4,0 - 8 4 - - W 1017,0 50 0,0
17.01.2019 16:00:00 0,5 -3,8 - 18 10 - - NW 1015,9 50 0,0
17.01.2019 15:00:00 1,6 -3,5 - 16 9 - - NW 1015,2 35 0,0
17.01.2019 14:00:00 1,9 -3,3 - 22 12 - - NNW 1014,1 35 0,0
17.01.2019 13:00:00 1,8 -3,4 - 21 11 - - NNW 1013,8 35 0,0
17.01.2019 12:00:00 1,2 -4,0 - 22 12 - - NW 1013,0 30 0,2
17.01.2019 11:00:00 0,5 -4,5 - 24 13 - - NW 1012,3 40 0,0
17.01.2019 10:00:00 -0,4 -5,0 - 28 15 - - NW 1011,5 45 0,0
17.01.2019 09:00:00 -0,8 -5,7 5,2 26 14 - - NW 1010,3 45 0,0
17.01.2019 08:00:00 -1,2 -5,7 - 22 12 - - NW 1009,4 50 0,0
17.01.2019 07:00:00 -1,2 -5,6 - 22 12 - - NW 1008,7 50 0,0
17.01.2019 06:00:00 -0,8 -5,3 - 26 14 - - NW 1007,3 50 0,0
17.01.2019 05:00:00 -0,1 -4,6 - 21 11 - - NNW 1006,4 50 0,0
17.01.2019 04:00:00 0,4 -2,2 - 24 13 55 30 NNW 1005,2 30 0,0
17.01.2019 03:00:00 1,8 1,0 - 18 10 - - NW 1003,5 35 0,0
17.01.2019 02:00:00 1,8 0,7 - 8 4 - - WNW 1002,7 21 0,0
17.01.2019 01:00:00 1,9 0,7 - 13 7 - - WNW 1002,2 50 0,0
17.01.2019 00:00:00 1,8 0,3 - 15 8 - - WNW 1001,4 45 0,0
16.01.2019 23:00:00 1,9 0,7 - 13 7 - - W 1000,3 50 0,0
16.01.2019 22:00:00 1,9 1,0 - 9 5 - - W 1000,1 40 0,0
16.01.2019 21:00:00 2,2 1,5 - 13 7 - - W 999,7 22 0,0
16.01.2019 20:00:00 2,2 1,2 - 15 8 - - W 999,3 30 0,0
16.01.2019 19:00:00 2,0 1,0 - 16 9 - - W 999,0 50 0,2
16.01.2019 18:00:00 2,4 1,4 - 15 8 - - W 998,9 19 0,0
16.01.2019 17:00:00 3,3 1,8 - 16 9 - - W 998,9 17 0,0
16.01.2019 16:00:00 3,7 1,8 - 15 8 - - W 999,1 20 0,0
16.01.2019 15:00:00 4,6 2,4 - 16 9 - - W 998,9 23 0,0
16.01.2019 14:00:00 4,7 3,2 - 13 7 - - W 999,3 21 0,0
16.01.2019 13:00:00 4,4 2,5 - 16 9 - - WSW 999,8 35 0,2
16.01.2019 12:00:00 3,8 2,1 - 15 8 - - W 1000,4 45 0,0
16.01.2019 11:00:00 4,8 3,7 - 13 7 - - W 1000,4 28 0,2
16.01.2019 10:00:00 5,0 4,4 - 13 7 - - W 1000,1 24 0,0
16.01.2019 09:00:00 5,2 4,6 5,7 16 9 - - W 999,7 9 0,6
16.01.2019 08:00:00 7,0 6,3 - 22 12 48 26 WSW 999,0 18 0,2
16.01.2019 07:00:00 6,8 6,0 - 29 16 52 28 SW 999,5 50 0,4
16.01.2019 06:00:00 6,8 6,0 - 26 14 48 26 SW 1000,2 8 0,0
16.01.2019 05:00:00 6,6 5,8 - 29 16 46 25 SW 1001,2 5 0,0
16.01.2019 04:00:00 6,5 5,4 - 24 13 - - SW 1002,3 45 0,0
16.01.2019 03:00:00 7,0 6,0 - 21 11 50 27 WSW 1003,5 45 0,0

tt = temperature
td = dewpoint
tt -20cm = temperature -20cm
ff = wind speed
fx = gusts
dd = wind direction
ppp = reduced air pressure
vv = visibility
rr = precipitation

Next stations